CAPE
27 56 64 102 108 114 123 140 129 72 56 20 5 0 0 0 0 0 0 0 0 0 0 0 0 0 0 0 0 0 0 0 9 0 0 0 0 0 0 0 0 0 0 0 0
8 16 61 68 122 150 112 119 131 107 72 35 15 11 0 0 0 0 0 0 0 0 0 0 0 0 0 0 0 0 0 9 1 0 0 0 0 0 0 0 0 0 0 0 0
1 1 41 64 90 119 163 92 114 146 91 69 10 18 6 0 1 0 0 0 0 0 0 0 0 0 0 0 0 0 0 0 0 0 0 0 0 0 0 0 0 0 0 0 0
8 4 8 51 44 64 137 126 92 119 108 78 64 4 5 26 0 0 0 0 0 0 0 0 0 0 0 0 0 0 0 0 0 0 0 0 0 0 0 0 0 0 0 0 0
26 0 16 7 65 35 140 157 122 103 121 100 74 38 23 9 1 0 0 0 0 0 0 0 0 0 0 0 0 0 0 0 0 0 0 0 0 0 0 0 0 0 0 0 0
59 26 0 7 44 67 113 159 173 137 131 166 130 78 46 0 0 0 0 0 1 0 0 0 0 0 0 0 0 0 0 0 0 0 0 0 0 0 0 0 0 0 0 0 0
35 60 7 13 50 74 125 154 164 166 130 152 184 29 18 0 0 0 0 0 0 1 0 0 0 0 0 0 0 0 0 0 0 0 0 0 0 0 0 0 0 0 0 0 0
47 43 23 27 9 48 130 153 176 144 132 131 131 44 11 0 10 0 0 0 0 1 9 9 0 0 0 0 0 0 0 0 0 0 0 0 0 0 0 0 0 0 0 0 0
53 58 63 12 6 23 110 111 107 126 172 129 23 37 4 0 0 0 0 0 2 35 14 16 3 0 0 0 0 0 0 0 0 0 0 0 0 0 0 0 0 0 0 0 0
43 50 62 36 32 0 87 99 84 96 116 59 16 24 2 0 0 0 0 2 20 59 55 27 55 0 0 0 0 0 0 0 0 0 0 0 0 0 0 0 0 0 0 0 0
36 74 88 84 69 8 82 44 33 42 55 18 11 0 0 0 0 0 0 46 9 37 25 22 3 3 0 0 0 0 0 0 0 0 0 0 0 0 0 0 0 0 0 0 0
63 97 104 99 48 9 32 42 16 30 26 38 21 0 0 2 0 0 13 32 48 7 20 14 9 0 0 0 0 0 0 0 0 0 0 0 0 0 0 0 0 0 0 0 0
125 126 119 115 65 6 7 36 22 28 29 17 34 25 0 4 0 0 9 6 4 4 0 0 0 0 0 0 0 0 0 0 0 0 0 0 0 0 0 0 0 0 0 0 0
146 149 117 123 97 12 14 0 4 4 79 24 35 24 9 19 0 0 0 0 20 6 0 0 0 5 7 3 1 0 0 0 0 0 0 0 0 0 0 0 0 0 0 0 0
131 170 102 77 50 41 12 0 52 46 1 20 19 0 15 3 0 0 0 10 1 0 8 0 0 0 4 0 5 3 2 7 14 11 19 0 1 0 0 0 0 0 0 0 0
143 163 126 89 63 15 1 96 104 11 3 20 18 23 24 13 18 4 42 43 1 14 0 0 8 0 0 5 9 17 16 27 26 25 15 1 1 0 0 0 0 0 0 0 0
151 158 78 60 17 35 21 132 61 34 3 2 14 14 12 9 13 30 20 38 2 32 4 0 4 4 0 6 8 10 52 22 10 6 0 0 0 0 0 0 0 0 0 0 0
173 145 48 42 77 82 48 2 9 1 2 1 6 3 2 17 10 25 12 18 8 0 0 6 1 0 9 3 1 0 14 0 0 0 0 0 0 0 0 0 0 0 0 0 0
173 48 58 42 58 40 6 0 28 9 4 9 12 2 32 23 7 37 9 4 0 0 0 2 8 0 0 0 0 10 25 0 0 0 0 0 0 0 0 0 0 0 0 0 0
9 36 36 48 69 62 3 9 0 0 13 35 14 5 2 10 17 18 17 2 3 0 0 0 1 0 1 16 18 25 5 33 30 21 0 0 0 0 0 0 0 0 0 0 0
14 6 38 44 53 19 13 17 1 0 0 13 2 27 13 2 8 12 0 0 0 0 0 0 0 0 21 11 0 9 15 20 13 1 0 0 0 0 0 0 0 0 0 0 0
11 11 40 43 11 14 0 0 1 0 0 5 46 28 24 10 7 21 18 0 0 0 0 0 0 0 0 0 0 26 21 29 17 0 2 0 0 0 0 0 0 0 0 0 0
0 14 42 25 3 5 1 0 1 0 0 5 38 9 10 9 36 20 0 0 0 0 0 0 0 0 0 3 5 28 12 15 23 9 14 4 0 0 0 0 0 0 0 0 0
0 7 1 8 2 0 10 1 0 2 0 0 0 0 14 15 39 22 1 1 1 18 36 18 1 0 0 0 0 4 0 12 33 55 0 0 0 0 0 0 0 0 0 0 0
1 0 0 1 2 0 0 0 1 7 1 0 12 1 0 0 28 15 5 6 18 16 49 31 1 0 0 0 2 10 11 11 52 1 10 0 0 0 0 0 0 0 0 0 0
0 0 0 1 0 0 0 0 0 0 6 10 0 1 27 1 5 0 8 0 0 0 55 43 5 7 0 0 0 0 9 14 4 0 28 1 0 0 0 0 0 0 0 0 0
4 4 3 6 1 2 0 0 0 0 4 2 0 4 21 12 0 0 0 13 12 10 19 92 26 14 0 0 2 38 0 0 0 2 0 2 0 0 0 0 0 0 0 0 0
CIN
0 0 -1 -61 -64 -25 -12 -1 -12 -31 -35 -2 -5 0 0 0 0 0 0 0 0 0 0 0 0 0 0 0 0 0 0 0 -5 0 0 0 0 0 0 0 0 0 0 0 0
-4 -1 0 -1 -43 -39 -37 -18 -32 -10 -31 -37 -3 -7 0 0 0 0 0 0 0 0 0 0 0 0 0 0 0 0 0 -28 -17 0 0 0 0 0 0 0 0 0 0 0 0
-22 -5 0 0 -1 -21 -26 -41 -36 -8 -30 -43 -4 -7 -16 0 0 0 0 0 0 0 0 0 0 0 0 0 0 0 0 0 0 0 0 0 0 0 0 0 0 0 0 0 0
-14 -25 -7 -1 0 0 -33 -41 -51 -28 -31 -42 -52 -6 -21 -8 0 0 0 0 0 0 0 0 0 0 0 0 0 0 0 0 0 0 0 0 0 0 0 0 0 0 0 0 0
-2 -8 -6 -25 0 -1 -42 -23 -64 -63 -37 -33 -59 -26 -6 0 0 0 0 0 0 0 0 0 0 0 0 0 0 0 0 0 0 0 0 0 0 0 0 0 0 0 0 0 0
-1 -2 0 -27 -2 0 0 -41 -36 -59 -52 -10 -48 -8 -1 0 0 0 0 0 0 0 0 0 0 0 0 0 0 0 0 0 0 0 0 0 0 0 0 0 0 0 0 0 0
0 0 -9 -4 -13 0 -1 0 -41 -37 -74 -21 -19 -1 0 0 0 0 0 0 0 -2 0 0 0 0 0 0 0 0 0 0 0 0 0 0 0 0 0 0 0 0 0 0 0
-1 -11 -5 -11 -20 -4 -2 -1 -2 -9 -11 -29 -5 -2 0 0 -2 0 0 0 0 -4 -44 -16 0 0 0 0 0 0 0 0 0 0 0 0 0 0 0 0 0 0 0 0 0
0 -1 -7 -12 -2 -6 -2 -5 -14 -10 -12 -15 -5 -6 0 0 0 0 0 0 -1 -21 -47 -33 -7 0 0 0 0 0 0 0 0 0 0 0 0 0 0 0 0 0 0 0 0
0 0 -4 -1 -4 0 -2 -6 -16 -9 -11 -2 -13 -1 -3 0 0 0 0 -3 0 -23 -19 -36 -15 0 0 0 0 0 0 0 0 0 0 0 0 0 0 0 0 0 0 0 0
-1 0 0 0 -8 -12 -1 -14 -5 0 0 -1 -2 -13 0 0 0 0 0 -4 -2 -1 0 -2 0 0 0 0 0 0 0 0 0 0 0 0 0 0 0 0 0 0 0 0 0
-2 0 0 0 -2 -12 -2 0 -4 -12 0 -1 -9 -3 0 -59 0 0 -3 -1 0 0 -2 -5 0 0 0 0 0 0 0 0 0 0 0 0 0 0 0 0 0 0 0 0 0
-1 0 0 -1 -2 -14 0 0 -60 -80 -3 -3 -1 -1 -30 -42 0 0 -1 -1 -1 0 0 0 0 0 0 0 0 0 0 0 0 0 0 0 0 0 0 0 0 0 0 0 0
0 0 -2 -1 0 -2 0 0 -26 -9 0 -1 0 -8 -5 -15 0 0 0 0 -2 0 0 0 0 -2 -1 0 -2 0 0 0 0 0 0 -1 0 0 0 0 0 0 0 0 0
0 -1 -2 -2 -6 0 0 0 -4 -5 0 -21 0 0 -9 -3 0 0 -3 -5 -1 0 -1 0 0 0 -3 0 -4 -2 -8 -3 -3 -4 -3 0 -1 0 0 0 0 0 0 0 0
-2 -1 -2 -1 -4 -3 -8 -5 -2 -30 -8 0 -3 0 0 -2 -10 -7 -7 -14 -3 -3 0 0 -21 -1 0 -2 -3 -3 -9 -11 -7 -4 -1 -1 -1 0 0 0 0 0 0 0 0
-2 -2 -3 0 0 -17 -16 0 0 -8 -1 0 -1 -1 -2 -1 -2 -2 -1 0 -1 -1 -2 0 -4 -16 0 -3 -6 -16 -4 -3 -1 -4 0 0 0 0 0 0 0 0 0 0 0
-1 -3 -4 0 -6 -17 -2 -3 -10 -2 0 0 -2 -1 -2 -1 -5 0 -6 0 -2 0 0 -1 0 -1 -9 -6 0 -1 -6 -1 0 0 0 0 0 0 0 0 0 0 0 0 0
-1 -3 -1 -3 -13 -12 -14 0 -7 -9 -2 -9 -6 0 -6 0 -7 0 -1 0 0 0 0 -1 -1 0 0 0 0 -2 -3 0 0 0 0 0 0 0 0 0 0 0 0 0 0
-3 -2 -1 -5 -6 -4 0 0 0 0 -13 -17 -11 -1 -13 -1 -1 -6 -1 -1 -1 0 0 0 -4 0 -5 -3 -10 -8 -5 -1 -5 -2 0 0 0 0 0 0 0 0 0 0 0
-2 -1 -6 -10 -10 -1 0 -1 0 0 0 -3 -6 -11 -22 -1 -5 0 0 0 0 0 0 0 0 0 -5 -2 0 -3 -5 -2 -5 -27 0 0 0 0 0 0 0 0 0 0 0
0 0 -8 -11 0 -4 -1 0 0 0 0 0 -1 -4 -27 -6 -18 -20 -20 0 0 0 0 0 0 0 0 0 0 -15 -16 -19 -10 0 -13 0 0 0 0 0 0 0 0 0 0
0 0 -5 -8 -1 0 -3 0 -7 0 0 -2 0 0 -43 -65 -31 -20 -87 -25 -9 0 0 0 -1 -1 0 -12 -13 -7 -6 -3 -5 -3 -5 -5 0 0 0 0 0 0 0 0 0
0 0 0 0 -11 0 -2 0 0 -5 0 0 0 0 -36 -21 -15 -31 -18 -54 -72 -78 -24 -36 -21 0 0 0 0 -6 0 -8 -9 -1 0 0 0 0 0 0 0 0 0 0 0
0 0 -1 0 0 0 0 0 0 -1 0 0 0 0 0 0 -3 -12 -45 -45 -41 -97 -33 -23 -3 0 0 0 -6 -17 -22 -39 -17 -8 -4 0 0 0 0 0 0 0 0 0 0
0 0 0 0 0 0 0 0 0 0 0 0 0 -1 -19 -7 -33 -2 -93 -1 0 -19 -30 -25 -36 -61 0 0 0 -1 -49 -41 -32 0 -16 -11 0 0 0 0 0 0 0 0 0
0 0 0 -1 -1 0 0 0 0 0 -1 0 0 0 -7 -17 -39 0 0 -53 -91 -105 -69 -21 -42 -17 0 0 -20 -4 0 0 0 -21 0 -13 0 0 0 0 0 0 0 0 0
Wind_Speed
8 10 9 10 11 10 10 9 8 8 7 3 2 4 6 8 10 8 9 3 4 9 12 12 11 6 9 4 4 4 3 3 3 3 8 5 5 2 1 4 5 5 7 7 9
8 9 11 10 9 10 11 10 9 9 7 5 3 3 4 6 9 12 8 1 3 8 9 8 9 10 5 2 3 3 2 5 8 9 5 6 4 6 5 6 7 8 8 9 8
7 8 9 11 10 10 10 11 10 9 7 6 4 3 4 5 7 1 8 7 3 6 8 8 8 7 6 2 3 3 3 7 8 8 8 5 1 3 4 2 5 11 10 8 8
7 7 8 9 10 10 10 11 10 10 7 7 6 5 2 4 6 3 4 5 5 6 9 6 5 4 4 6 7 2 7 2 5 4 1 1 4 3 2 4 5 9 7 7 8
7 5 7 9 10 10 9 9 10 10 9 8 7 6 2 7 8 5 3 2 4 6 10 9 7 7 8 5 7 5 10 3 6 2 2 2 4 6 3 2 5 5 4 6 4
10 6 5 8 9 11 9 8 10 10 11 9 8 5 5 14 3 5 3 5 4 7 10 11 7 7 8 7 8 3 6 8 5 5 4 2 6 6 6 9 7 6 7 9 6
11 8 4 4 7 10 9 8 9 10 11 9 9 6 11 13 3 2 1 1 4 4 7 10 8 6 4 7 7 3 5 7 5 4 6 4 8 10 9 7 7 9 9 9 8
12 10 9 4 7 8 9 7 8 9 10 9 9 6 8 14 6 2 3 5 3 2 4 8 5 5 6 2 4 4 6 7 8 10 5 7 8 10 13 14 11 10 7 9 6
13 11 10 10 6 7 8 6 8 7 8 9 3 5 7 1 9 7 4 6 4 1 1 1 1 3 3 4 5 7 5 11 9 10 10 10 4 7 10 4 8 8 8 6 6
15 14 12 12 9 7 7 5 6 4 5 4 2 4 5 7 5 10 4 5 4 4 4 4 4 5 4 7 9 7 11 12 10 5 3 8 9 9 8 5 6 7 8 8 8
15 14 13 15 12 6 5 6 5 4 9 5 6 4 2 9 6 10 10 5 7 6 7 8 5 12 11 12 10 10 9 8 7 9 6 8 9 10 9 9 10 10 9 9 9
17 15 15 16 14 7 5 7 9 2 8 15 0 9 3 5 5 8 11 8 8 13 11 6 14 10 10 8 12 12 12 10 7 5 2 5 11 15 14 15 14 10 9 9 8
19 17 15 15 16 6 9 12 3 10 5 11 9 13 4 5 5 13 16 8 10 14 17 15 1 17 13 12 14 13 14 8 7 6 5 4 15 20 17 23 16 11 9 7 8
19 17 15 15 12 10 9 11 3 2 4 11 16 7 7 4 6 7 16 9 7 16 12 13 18 11 15 14 14 15 10 13 11 6 6 6 8 12 7 3 8 13 13 10 8
20 19 17 19 7 8 4 8 6 1 6 18 13 12 12 10 11 8 16 10 9 8 11 8 12 19 14 15 8 6 5 9 8 6 6 12 7 6 11 9 8 8 8 9 9
21 20 19 13 3 8 12 7 5 7 9 7 9 17 13 17 8 10 10 8 1 6 8 13 3 7 16 6 9 6 3 3 1 2 9 12 11 8 11 11 9 5 8 9 8
22 20 15 8 9 3 9 5 10 12 4 5 10 16 25 11 12 11 16 15 10 9 14 10 13 3 2 11 6 5 9 2 2 3 7 9 13 15 8 4 0 11 9 8 7
23 20 12 7 7 7 7 4 14 11 2 1 10 20 24 20 13 13 19 17 18 10 11 10 6 16 10 10 11 14 13 6 8 6 4 13 11 7 6 8 8 8 9 9 8
23 9 8 6 8 7 2 8 8 1 5 7 11 17 14 14 9 15 17 23 19 18 7 10 7 6 14 8 16 11 19 13 6 2 2 6 6 9 6 5 6 7 7 8 8
8 9 8 9 9 4 0 4 2 6 5 10 15 10 14 19 13 17 20 19 15 18 7 2 2 9 7 6 7 6 6 9 3 4 5 7 8 12 4 7 8 8 10 9 9
6 6 9 12 6 3 6 5 4 7 1 4 10 8 10 14 19 13 10 8 24 19 13 5 3 2 8 11 15 10 6 6 5 7 5 5 6 3 6 12 14 11 8 9 9
4 5 10 11 5 2 7 6 3 5 4 5 12 9 15 19 13 19 17 18 22 19 22 9 4 6 11 5 12 16 16 15 7 9 5 12 18 5 7 4 6 8 7 8 9
4 3 8 8 7 6 2 8 4 3 3 3 7 7 8 13 15 20 17 12 14 17 16 14 5 3 2 4 7 10 16 18 17 1 14 11 16 11 8 3 4 6 8 7 8
4 4 2 2 2 11 6 6 12 4 9 6 10 16 16 14 10 16 14 9 11 21 10 15 5 14 17 13 9 11 14 19 18 12 18 18 26 18 13 6 6 7 8 9 9
2 3 2 6 10 9 11 7 8 6 5 8 5 20 15 12 15 6 14 7 13 10 13 10 9 13 17 13 10 10 16 20 19 25 19 22 19 27 18 12 8 12 9 10 13
4 3 1 2 4 15 14 11 14 4 4 6 13 20 14 7 14 15 17 12 7 7 9 8 5 5 8 15 16 18 16 13 23 23 19 24 25 26 15 8 9 14 16 17 13
2 1 0 5 9 13 16 14 13 13 8 9 11 15 20 1 8 9 8 5 8 9 10 9 7 6 14 12 11 13 21 23 19 18 21 22 26 20 23 23 18 17 13 18 19
Wind_Direction
322 296 270 246 231 230 224 224 218 212 212 214 237 291 313 321 315 282 277 12 2 347 323 293 288 319 295 301 312 308 288 241 151 25 105 133 155 17 328 127 68 64 69 107 120
326 319 292 266 256 228 224 219 218 216 209 200 198 257 290 310 292 277 280 178 9 339 317 338 328 345 307 231 303 290 295 22 11 49 69 82 338 131 206 143 136 109 107 122 148
304 326 304 275 257 258 230 218 210 214 205 204 185 225 267 294 288 274 8 354 323 314 297 308 302 296 286 277 257 246 247 37 79 43 11 57 247 21 281 180 107 149 138 156 163
288 314 324 290 272 255 253 221 211 207 200 197 207 201 245 262 247 84 5 326 306 273 278 280 263 265 261 254 227 281 263 8 90 69 189 235 17 287 282 102 57 76 97 154 181
252 273 299 312 268 255 249 238 212 208 201 197 201 210 202 216 243 142 76 107 206 199 226 226 242 248 250 256 250 201 280 177 84 107 260 28 264 261 297 237 132 124 168 250 200
246 238 280 305 276 256 246 232 224 207 205 190 192 190 247 232 348 166 65 345 348 201 215 236 241 252 288 276 260 242 292 260 195 202 201 244 258 247 223 246 244 192 217 231 199
245 230 231 294 277 249 243 236 226 216 204 191 187 194 232 228 68 34 200 310 345 297 231 233 270 284 201 273 276 350 281 282 259 204 257 205 259 250 239 223 218 207 220 231 218
238 246 212 251 312 276 230 220 230 225 199 181 191 206 241 222 230 134 203 217 272 309 325 335 21 305 274 347 338 209 237 252 207 208 193 143 250 250 227 224 230 242 245 241 186
234 236 215 212 265 303 235 207 223 220 205 145 162 215 233 37 210 218 247 228 185 191 28 3 308 247 202 251 234 207 243 220 245 227 196 177 260 272 259 246 222 224 255 258 248
223 225 230 201 218 286 246 173 214 176 165 128 326 152 286 208 175 199 185 273 170 171 143 184 216 204 216 196 206 216 216 243 257 212 196 246 238 235 269 249 250 259 272 288 283
209 221 221 197 185 240 223 101 139 195 204 194 165 171 209 198 157 188 170 179 201 198 195 201 198 206 197 215 232 269 277 285 245 245 178 227 261 274 278 273 223 223 231 240 252
203 211 210 203 187 204 268 210 197 37 204 224 191 187 14 143 152 195 168 172 187 204 207 194 227 217 223 219 222 242 259 265 290 314 97 295 273 274 265 261 253 245 248 251 257
199 198 205 207 194 201 243 230 19 1 209 190 202 204 174 189 187 191 176 187 185 195 206 216 236 208 233 220 231 231 240 248 259 292 209 277 270 251 248 240 247 245 237 238 245
195 190 195 200 197 180 234 252 25 25 232 183 185 210 162 221 224 186 190 170 208 208 198 228 233 196 219 227 209 232 213 236 248 241 245 196 282 298 277 246 220 219 228 219 225
189 184 187 184 129 181 143 225 113 142 249 163 158 135 155 196 126 208 181 212 211 195 193 206 195 221 218 226 221 237 294 254 224 250 272 258 279 263 230 258 242 205 200 202 110
183 178 179 191 215 182 205 144 121 222 229 167 138 164 155 196 177 118 169 237 209 226 254 238 28 217 227 225 216 164 86 45 357 258 246 228 231 227 233 211 218 195 128 122 118
179 172 171 172 194 159 159 174 200 224 163 177 164 171 178 166 161 170 180 193 174 171 207 217 222 183 224 201 171 221 160 180 224 217 234 203 208 244 303 328 25 184 135 125 124
172 165 177 179 184 146 164 228 221 190 213 138 171 189 190 162 186 179 175 193 216 212 155 184 211 210 168 218 189 203 202 175 198 198 231 205 236 243 208 245 169 130 147 138 139
162 167 164 182 167 150 172 196 213 351 137 173 160 184 180 175 160 169 195 200 197 200 167 183 231 155 175 186 175 188 215 214 328 150 124 241 262 304 167 169 132 138 138 154 159
149 159 164 165 136 105 220 234 272 236 353 230 187 177 198 181 177 180 187 200 204 209 224 167 120 181 178 184 239 186 152 201 205 239 232 242 246 240 203 186 193 193 188 177 150
141 127 150 141 113 107 220 212 251 270 258 286 226 160 192 180 191 191 194 188 200 189 204 154 128 209 145 199 188 198 208 216 183 212 211 247 236 196 237 213 190 203 188 169 160
97 123 147 134 138 165 216 185 212 255 215 303 303 189 191 182 186 188 203 209 192 175 194 188 154 173 207 198 223 217 214 205 204 219 247 259 260 43 100 94 155 172 173 162 157
87 77 150 153 183 198 232 222 183 220 186 193 288 256 249 176 192 206 198 194 187 185 182 178 220 153 214 226 229 218 225 227 233 162 220 223 257 207 248 8 110 150 154 165 157
84 112 65 172 265 195 174 228 231 215 239 208 276 309 237 181 216 190 201 173 183 200 153 159 189 212 224 222 139 207 218 222 226 238 244 240 257 261 267 253 189 184 191 182 170
110 178 176 182 213 216 215 178 182 235 191 164 284 242 220 178 192 181 196 172 186 188 191 152 214 229 243 260 269 227 212 218 229 232 229 250 244 258 257 260 219 198 200 184 191
132 154 157 288 184 199 206 219 219 214 209 199 214 259 211 175 186 188 182 175 168 175 191 170 233 185 257 250 244 256 262 250 232 245 255 253 258 259 274 263 237 228 199 205 195
148 108 202 201 182 183 207 214 224 220 217 235 227 239 200 316 95 60 59 174 148 165 203 179 201 183 244 235 236 252 239 244 254 244 236 245 252 265 262 256 257 254 219 205 201